This is the latest recevied weather packets stored in our database for station/object KJ5IIV. If no packets are shown the sender has not sent any weather packets the latest 10 day(s).
| Time | Temp. | Humidity | Pressure | Rain* | Wind** | Luminosity | Snow |
|---|---|---|---|---|---|---|---|
| 1777919448 | 26.67° C | 45% | 1012.6 hPa | 0 mm | - | 738 W/m² | - |
| 1777915817 | 25.56° C | 46% | 1013.5 hPa | 0 mm | - | 828 W/m² | - |
| 1777915513 | 25.56° C | 44% | 1013.7 hPa | 0 mm | - | 762 W/m² | - |
| 1777913996 | 25° C | 48% | 1013.8 hPa | 0 mm | - | 763 W/m² | - |
| 1777912782 | 24.44° C | 48% | 1014.1 hPa | 0 mm | - | 871 W/m² | - |
| 1777912478 | 24.44° C | 47% | 1013.8 hPa | 0 mm | - | 854 W/m² | - |
| 1777912175 | 23.89° C | 47% | 1014.1 hPa | 0 mm | - | 844 W/m² | - |
| 1777911871 | 24.44° C | 48% | 1014.1 hPa | 0 mm | - | 829 W/m² | - |
| 1777911568 | 23.89° C | 48% | 1014.3 hPa | 0 mm | - | 761 W/m² | - |
| 1777911264 | 23.89° C | 48% | 1014 hPa | 0 mm | - | 847 W/m² | - |
| 1777910355 | 23.89° C | 47% | 1014.4 hPa | 0 mm | - | 756 W/m² | - |
| 1777909144 | 22.78° C | 51% | 1014.7 hPa | 0 mm | - | 770 W/m² | - |
| 1777908842 | 22.78° C | 51% | 1014.7 hPa | 0 mm | - | 762 W/m² | - |
| 1777908538 | 22.78° C | 54% | 1014.6 hPa | 0 mm | - | 683 W/m² | - |
| 1777908235 | 22.78° C | 53% | 1014.7 hPa | 0 mm | - | 705 W/m² | - |
| 1777907932 | 22.22° C | 53% | 1014.5 hPa | 0 mm | - | 702 W/m² | - |
| 1777907627 | 21.67° C | 53% | 1014.6 hPa | 0 mm | - | 599 W/m² | - |
| 1777907323 | 21.67° C | 55% | 1014.6 hPa | 0 mm | - | 591 W/m² | - |
| 1777907019 | 21.67° C | 56% | 1014.9 hPa | 0 mm | - | 589 W/m² | - |
| 1777906717 | 21.67° C | 56% | 1014.7 hPa | 0 mm | - | 580 W/m² | - |
| 1777906413 | 21.11° C | 56% | 1014.5 hPa | 0 mm | - | 569 W/m² | - |
| 1777906110 | 21.11° C | 57% | 1014.7 hPa | 0 mm | - | 545 W/m² | - |
| 1777905806 | 21.67° C | 57% | 1014.9 hPa | 0 mm | - | 550 W/m² | - |
| 1777905504 | 21.67° C | 57% | 1014.5 hPa | 0 mm | - | 533 W/m² | - |
| 1777905201 | 21.67° C | 59% | 1014.8 hPa | 0 mm | - | 517 W/m² | - |
* Rain latest hour (hover to see other rain measurements)
** Current wind speed in m/s (hover to see current wind gust speed)